Regional Weather Roundup
Issued by NWS

Home | Current Version | Previous Version | Graphics & Text | Print | Product List | Glossary On
Versions: 1 2 3 4 5 6 7 8 9 10 11 12 13 14 15 16 17 18 19 20 21 22 23 24 25 26 27 28 29 30 31 32 33 34 35 36 37 38 39 40 41 42 43 44 45 46 47 48 49 50
151
ASUS43 KFSD 090902
RWRSD

WEATHER ROUNDUP FOR SOUTH DAKOTA
NATIONAL WEATHER SERVICE SIOUX FALLS SD
300 AM CST TUE FEB 09 2016

NOTE: "FAIR" INDICATES FEW OR NO CLOUDS BELOW 12,000 FEET WITH NO
SIGNIFICANT WEATHER AND/OR OBSTRUCTIONS TO VISIBILITY.


SDZ001>005-009-010-012>017-091000-
NORTHWEST AND NORTH CENTRAL SOUTH DAKOTA

CITY           SKY/WX    TMP DP  RH WIND       PRES   REMARKS
BUFFALO          N/A     23  14  68 SW5       30.15S WCI  17
FAITH            N/A     29  16  58 N7        30.23S WCI  22
MOBRIDGE       CLOUDY    23  15  71 N8        30.25R WCI  14
$$

SDZ012>016-024>037-041>051-057-063-072>074-091000-
SOUTHWEST AND SOUTH CENTRAL SOUTH DAKOTA

CITY           SKY/WX    TMP DP  RH WIND       PRES   REMARKS
RAPID CTY ARPT PTCLDY    25  17  72 N8        30.22S WCI  16
PIERRE         CLOUDY    24  15  68 N13       30.25R WCI  12
CUSTER         CLEAR     33  22  63 NW5       30.17S WCI  29
ELLSWORTH AFB  PTCLDY    31  14  49 N5        30.21S WCI  27
PHILIP         CLOUDY    30  20  66 CALM      30.25R
PINE RIDGE     CLOUDY    28  21  75 CALM      30.21F
WINNER         FAIR      25  15  66 N12       30.23R WCI  14
$$

SDZ004>011-016>023-039-040-091000-
NORTHEAST SOUTH DAKOTA

CITY           SKY/WX    TMP DP  RH WIND       PRES   REMARKS
ABERDEEN       CLEAR     13   7  77 N10       30.27R WCI   0
WATERTOWN      PTCLDY     5  -1  76 N15       30.16R WCI -13
BROOKINGS      CLEAR      6   1  80 N16       30.14R WCI -12
SISSETON         N/A      6   2  83 N16       30.23R WCI -12
$$

SDZ017-020-022-023-036>040-048>070-091000-
SOUTHEAST SOUTH DAKOTA

CITY           SKY/WX    TMP DP  RH WIND       PRES   REMARKS
SIOUX FALLS    CLEAR     10   3  73 N23G31    30.14R WCI -10
HURON          CLEAR     14   8  77 N15       30.25R WCI  -1
MITCHELL       CLEAR     16   9  74 NW12      30.24R WCI   3
YANKTON        CLEAR     16   7  67 N22G33    30.18R WCI  -2
$$

ABBREVIATIONS USED IN REMARKS
   TC - TEMPERATURE IN CELSIUS
  WCI - WIND CHILL INDEX
   HX - HEAT INDEX
  VSB - VISIBILITY





USA.gov is the U.S. government's official web portal to all federal, state and local government web resources and services.